When you browse on this site, cookies collect data to enhance your experience and personalize the content and advertising you see.
Visit our Privacy Policy to learn more. By continuing to use the site, you agree to this use of cookies and data.
  • In United Kingdom
  • List of Countries
  • For 7 days
  • Water Temperature
  • Weather Map
  • Weather Widgets
  • user-avatar
    Login

    Hourly Weather Brussels

    Today, 20 October, Sunday

    Time Temperature Precipitation Wind Pressure Humidity
    00:00 +10°C° 0 mm 3 mps 752 mmHg 91%
    01:00 +10°C° 0 mm 2 mps 752 mmHg 91%
    02:00 +11°C° 0 mm 1 mps 751 mmHg 91%
    03:00 +11°C° 0 mm 1 mps 751 mmHg 91%
    04:00 +11°C° 0 mm 1 mps 752 mmHg 91%
    05:00 +11°C° 0 mm 1 mps 752 mmHg 91%
    06:00 +10°C° 0 mm 0 mps 752 mmHg 93%
    07:00 +10°C° 0 mm 0 mps 752 mmHg 91%
    08:00 +12°C° 0 mm 1 mps 752 mmHg 89%
    09:00 +13°C° 0 mm 1 mps 752 mmHg 87%
    10:00 +12°C° 0.6 mm 2 mps 752 mmHg 89%
    11:00 +12°C° 0.6 mm 2 mps 752 mmHg 90%
    12:00 +11°C° 0.6 mm 3 mps 753 mmHg 92%
    13:00 +11°C° 0.4 mm 4 mps 753 mmHg 91%
    14:00 +11°C° 0.4 mm 4 mps 752 mmHg 90%
    15:00 +10°C° 0.4 mm 5 mps 752 mmHg 89%
    16:00 +9°C° 0.1 mm 5 mps 753 mmHg 89%
    17:00 +10°C° 0.1 mm 4 mps 753 mmHg 89%
    18:00 +10°C° 0.1 mm 4 mps 753 mmHg 89%
    19:00 +10°C° 0.1 mm 4 mps 753 mmHg 90%
    20:00 +9°C° 0.1 mm 5 mps 753 mmHg 90%
    21:00 +9°C° 0.1 mm 5 mps 753 mmHg 90%
    22:00 +11°C° 0.3 mm 4 mps 753 mmHg 92%
    23:00 +11°C° 0.3 mm 4 mps 753 mmHg 93%

    Tomorrow, 21 October, Monday

    Time Temperature Precipitation Wind Pressure Humidity
    00:00 +11°C° 0.3 mm 3 mps 754 mmHg 95%
    01:00 +11°C° 1.4 mm 3 mps 753 mmHg 96%
    02:00 +12°C° 1.4 mm 2 mps 753 mmHg 97%
    03:00 +12°C° 1.4 mm 2 mps 753 mmHg 97%
    04:00 +13°C° 0.3 mm 2 mps 753 mmHg 96%
    05:00 +12°C° 0.3 mm 3 mps 754 mmHg 95%
    06:00 +12°C° 0.3 mm 3 mps 755 mmHg 94%
    07:00 +13°C° 0 mm 4 mps 755 mmHg 90%
    08:00 +13°C° 0 mm 5 mps 755 mmHg 86%
    09:00 +13°C° 0 mm 6 mps 756 mmHg 81%
    10:00 +13°C° 0 mm 6 mps 756 mmHg 79%
    11:00 +13°C° 0 mm 6 mps 757 mmHg 78%
    12:00 +13°C° 0 mm 6 mps 758 mmHg 76%
    13:00 +14°C° 0 mm 5 mps 758 mmHg 77%
    14:00 +14°C° 0 mm 5 mps 758 mmHg 78%
    15:00 +14°C° 0 mm 5 mps 758 mmHg 79%
    16:00 +13°C° 0 mm 5 mps 759 mmHg 81%
    17:00 +13°C° 0 mm 5 mps 759 mmHg 83%
    18:00 +13°C° 0 mm 6 mps 760 mmHg 86%
    19:00 +11°C° 0 mm 6 mps 761 mmHg 87%
    20:00 +11°C° 0 mm 6 mps 761 mmHg 88%
    21:00 +10°C° 0 mm 6 mps 761 mmHg 89%
    22:00 +10°C° 0 mm 6 mps 762 mmHg 90%
    23:00 +10°C° 0 mm 5 mps 762 mmHg 90%

    Day after tomorrow, 22 October, Tuesday

    Time Temperature Precipitation Wind Pressure Humidity
    00:00 +9°C° 0 mm 5 mps 763 mmHg 91%
    01:00 +10°C° 0 mm 4 mps 763 mmHg 92%
    02:00 +10°C° 0 mm 4 mps 763 mmHg 93%
    03:00 +8°C° 0 mm 4 mps 763 mmHg 93%
    04:00 +9°C° 0 mm 3 mps 763 mmHg 94%
    05:00 +9°C° 0 mm 3 mps 764 mmHg 94%
    06:00 +8°C° 0 mm 3 mps 764 mmHg 95%
    07:00 +9°C° 0 mm 3 mps 764 mmHg 92%
    08:00 +10°C° 0 mm 2 mps 764 mmHg 89%
    09:00 +12°C° 0 mm 2 mps 765 mmHg 86%
    10:00 +13°C° 0 mm 2 mps 765 mmHg 81%
    11:00 +14°C° 0 mm 2 mps 765 mmHg 77%
    12:00 +15°C° 0 mm 1 mps 765 mmHg 72%
    13:00 +15°C° 0 mm 1 mps 765 mmHg 72%
    14:00 +15°C° 0 mm 1 mps 764 mmHg 71%
    15:00 +15°C° 0 mm 1 mps 764 mmHg 71%
    16:00 +14°C° 0 mm 1 mps 764 mmHg 76%
    17:00 +13°C° 0 mm 1 mps 764 mmHg 81%
    18:00 +10°C° 0 mm 2 mps 764 mmHg 86%
    19:00 +10°C° 0 mm 2 mps 764 mmHg 88%
    20:00 +10°C° 0 mm 2 mps 763 mmHg 90%
    21:00 +9°C° 0 mm 2 mps 763 mmHg 92%
    22:00 +9°C° 0 mm 2 mps 763 mmHg 92%
    23:00 +9°C° 0 mm 2 mps 763 mmHg 93%

    23 October, Wednesday

    Time Temperature Precipitation Wind Pressure Humidity
    00:00 +9°C° 0 mm 2 mps 762 mmHg 93%
    01:00 +9°C° 0 mm 3 mps 762 mmHg 92%
    02:00 +9°C° 0 mm 3 mps 761 mmHg 90%
    03:00 +8°C° 0 mm 4 mps 761 mmHg 89%
    04:00 +9°C° 0 mm 3 mps 760 mmHg 90%
    05:00 +9°C° 0 mm 3 mps 760 mmHg 91%
    06:00 +9°C° 0 mm 3 mps 759 mmHg 92%
    07:00 +10°C° 0 mm 3 mps 759 mmHg 87%
    08:00 +11°C° 0 mm 3 mps 759 mmHg 83%
    09:00 +12°C° 0 mm 4 mps 758 mmHg 78%
    10:00 +14°C° 0 mm 4 mps 758 mmHg 75%
    11:00 +17°C° 0 mm 3 mps 757 mmHg 72%
    12:00 +18°C° 0 mm 3 mps 757 mmHg 70%
    13:00 +18°C° 0 mm 4 mps 756 mmHg 71%
    14:00 +19°C° 0 mm 4 mps 755 mmHg 73%
    15:00 +19°C° 0 mm 4 mps 755 mmHg 75%
    16:00 +17°C° 0 mm 4 mps 754 mmHg 80%
    17:00 +16°C° 0 mm 3 mps 754 mmHg 85%
    18:00 +14°C° 0 mm 3 mps 754 mmHg 89%
    19:00 +14°C° 0 mm 3 mps 754 mmHg 90%
    20:00 +14°C° 0 mm 2 mps 754 mmHg 91%
    21:00 +14°C° 0 mm 2 mps 754 mmHg 92%
    22:00 +14°C° 0 mm 2 mps 754 mmHg 92%
    23:00 +13°C° 0 mm 2 mps 753 mmHg 92%

    24 October, Thursday

    Time Temperature Precipitation Wind Pressure Humidity
    00:00 +13°C° 0 mm 2 mps 753 mmHg 92%
    01:00 +13°C° 0 mm 2 mps 753 mmHg 93%
    02:00 +13°C° 0 mm 2 mps 753 mmHg 93%
    03:00 +12°C° 0 mm 2 mps 753 mmHg 93%
    04:00 +13°C° 0 mm 2 mps 753 mmHg 93%
    05:00 +13°C° 0 mm 2 mps 753 mmHg 92%
    06:00 +12°C° 0 mm 3 mps 753 mmHg 91%
    07:00 +13°C° 0 mm 3 mps 753 mmHg 87%
    08:00 +15°C° 0 mm 4 mps 753 mmHg 82%
    09:00 +17°C° 0 mm 4 mps 753 mmHg 77%
    10:00 +17°C° 0 mm 5 mps 754 mmHg 72%
    11:00 +19°C° 0 mm 5 mps 754 mmHg 66%
    12:00 +20°C° 0 mm 6 mps 754 mmHg 61%
    13:00 +20°C° 0 mm 5 mps 754 mmHg 62%
    14:00 +19°C° 0 mm 5 mps 754 mmHg 64%
    15:00 +19°C° 0 mm 4 mps 754 mmHg 66%
    16:00 +18°C° 0 mm 4 mps 754 mmHg 73%
    17:00 +15°C° 0 mm 4 mps 755 mmHg 79%
    18:00 +14°C° 0 mm 3 mps 755 mmHg 86%
    19:00 +13°C° 0 mm 3 mps 756 mmHg 88%
    20:00 +13°C° 0 mm 3 mps 756 mmHg 90%
    21:00 +12°C° 0 mm 3 mps 757 mmHg 92%
    22:00 +12°C° 0 mm 3 mps 757 mmHg 93%
    23:00 +12°C° 0 mm 3 mps 757 mmHg 93%

    25 October, Friday

    Time Temperature Precipitation Wind Pressure Humidity
    00:00 +12°C° 0 mm 3 mps 758 mmHg 93%
    01:00 +13°C° 0 mm 2 mps 758 mmHg 93%
    02:00 +12°C° 0 mm 2 mps 758 mmHg 93%
    03:00 +12°C° 0 mm 2 mps 758 mmHg 93%
    04:00 +12°C° 0 mm 2 mps 758 mmHg 93%
    05:00 +10°C° 0 mm 2 mps 759 mmHg 93%
    06:00 +10°C° 0 mm 2 mps 759 mmHg 93%
    07:00 +12°C° 0 mm 2 mps 759 mmHg 89%
    08:00 +13°C° 0 mm 2 mps 759 mmHg 85%
    09:00 +13°C° 0 mm 3 mps 760 mmHg 81%
    10:00 +14°C° 0 mm 3 mps 760 mmHg 77%
    11:00 +16°C° 0 mm 3 mps 760 mmHg 73%
    12:00 +17°C° 0 mm 3 mps 759 mmHg 69%
    13:00 +17°C° 0 mm 3 mps 759 mmHg 70%
    14:00 +17°C° 0 mm 3 mps 759 mmHg 71%
    15:00 +17°C° 0 mm 2 mps 758 mmHg 72%
    16:00 +16°C° 0 mm 3 mps 758 mmHg 77%
    17:00 +14°C° 0 mm 3 mps 758 mmHg 82%
    18:00 +13°C° 0 mm 3 mps 758 mmHg 87%
    19:00 +12°C° 0 mm 4 mps 758 mmHg 86%
    20:00 +12°C° 0 mm 5 mps 757 mmHg 86%
    21:00 +12°C° 0 mm 5 mps 757 mmHg 85%
    22:00 +11°C° 0 mm 6 mps 757 mmHg 83%
    23:00 +13°C° 0 mm 6 mps 757 mmHg 81%
    Show more